Hourly Weather Smulkovo

Today, 19 June, Saturday

Time Temperature Precipitation Wind Pressure Humidity
00:00 +17°C° 0 mm 2 mps 756 mmHg 88%
01:00 +16°C° 0 mm 2 mps 756 mmHg 90%
02:00 +16°C° 0 mm 2 mps 756 mmHg 91%
03:00 +17°C° 0 mm 2 mps 756 mmHg 90%
04:00 +17°C° 0 mm 2 mps 756 mmHg 88%
05:00 +17°C° 0 mm 2 mps 756 mmHg 87%
06:00 +19°C° 0 mm 2 mps 756 mmHg 81%
07:00 +21°C° 0 mm 2 mps 756 mmHg 75%
08:00 +24°C° 0 mm 2 mps 756 mmHg 69%
09:00 +25°C° 0 mm 2 mps 756 mmHg 64%
10:00 +26°C° 0 mm 3 mps 756 mmHg 59%
11:00 +28°C° 0 mm 3 mps 756 mmHg 54%
12:00 +28°C° 0 mm 3 mps 756 mmHg 52%
13:00 +29°C° 0 mm 3 mps 755 mmHg 51%
14:00 +29°C° 0 mm 3 mps 755 mmHg 49%
15:00 +29°C° 0 mm 3 mps 755 mmHg 51%
16:00 +29°C° 0 mm 3 mps 755 mmHg 53%
17:00 +29°C° 0 mm 3 mps 754 mmHg 55%
18:00 +27°C° 0 mm 2 mps 754 mmHg 63%
19:00 +25°C° 0 mm 2 mps 754 mmHg 70%
20:00 +24°C° 0 mm 2 mps 754 mmHg 78%
21:00 +21°C° 0 mm 2 mps 754 mmHg 82%
22:00 +20°C° 0 mm 2 mps 754 mmHg 86%
23:00 +19°C° 0 mm 2 mps 754 mmHg 90%

Tomorrow, 20 June, Sunday

Time Temperature Precipitation Wind Pressure Humidity
00:00 +19°C° 0 mm 2 mps 754 mmHg 91%
01:00 +18°C° 0 mm 2 mps 754 mmHg 92%
02:00 +18°C° 0 mm 2 mps 754 mmHg 93%
03:00 +18°C° 0 mm 2 mps 754 mmHg 92%
04:00 +19°C° 0 mm 2 mps 754 mmHg 91%
05:00 +19°C° 0 mm 2 mps 754 mmHg 91%
06:00 +21°C° 0 mm 2 mps 754 mmHg 85%
07:00 +24°C° 0 mm 2 mps 754 mmHg 78%
08:00 +26°C° 0 mm 2 mps 754 mmHg 72%
09:00 +27°C° 0 mm 3 mps 754 mmHg 68%
10:00 +28°C° 0 mm 3 mps 754 mmHg 63%
11:00 +29°C° 0 mm 3 mps 754 mmHg 59%
12:00 +30°C° 0 mm 3 mps 754 mmHg 56%
13:00 +31°C° 0 mm 3 mps 753 mmHg 54%
14:00 +31°C° 0 mm 3 mps 753 mmHg 51%
15:00 +31°C° 0 mm 3 mps 753 mmHg 53%
16:00 +30°C° 0 mm 4 mps 753 mmHg 56%
17:00 +30°C° 0 mm 4 mps 752 mmHg 58%
18:00 +28°C° 0 mm 3 mps 752 mmHg 65%
19:00 +27°C° 0 mm 3 mps 752 mmHg 73%
20:00 +25°C° 0 mm 3 mps 752 mmHg 80%
21:00 +24°C° 0 mm 3 mps 752 mmHg 83%
22:00 +22°C° 0 mm 3 mps 752 mmHg 87%
23:00 +20°C° 0 mm 2 mps 752 mmHg 91%

Day after tomorrow, 21 June, Monday

Time Temperature Precipitation Wind Pressure Humidity
00:00 +20°C° 0 mm 2 mps 752 mmHg 92%
01:00 +19°C° 0 mm 2 mps 752 mmHg 93%
02:00 +19°C° 0 mm 2 mps 752 mmHg 94%
03:00 +19°C° 0 mm 2 mps 752 mmHg 93%
04:00 +19°C° 0 mm 2 mps 752 mmHg 93%
05:00 +19°C° 0 mm 2 mps 752 mmHg 92%
06:00 +21°C° 0 mm 2 mps 752 mmHg 85%
07:00 +22°C° 0 mm 3 mps 752 mmHg 78%
08:00 +25°C° 0 mm 3 mps 752 mmHg 72%
09:00 +26°C° 0 mm 3 mps 752 mmHg 66%
10:00 +27°C° 0 mm 4 mps 752 mmHg 60%
11:00 +29°C° 0 mm 4 mps 752 mmHg 54%
12:00 +29°C° 0 mm 4 mps 751 mmHg 51%
13:00 +30°C° 0 mm 4 mps 751 mmHg 47%
14:00 +32°C° 0 mm 4 mps 751 mmHg 44%
15:00 +30°C° 0 mm 4 mps 751 mmHg 47%
16:00 +30°C° 0 mm 4 mps 750 mmHg 51%
17:00 +30°C° 0 mm 4 mps 750 mmHg 54%
18:00 +28°C° 0 mm 4 mps 750 mmHg 62%
19:00 +27°C° 0 mm 3 mps 750 mmHg 69%
20:00 +25°C° 0 mm 3 mps 750 mmHg 77%
21:00 +24°C° 0 mm 3 mps 750 mmHg 81%
22:00 +22°C° 0 mm 3 mps 750 mmHg 85%
23:00 +21°C° 0 mm 3 mps 750 mmHg 89%

22 June, Tuesday

Time Temperature Precipitation Wind Pressure Humidity
00:00 +21°C° 0 mm 3 mps 750 mmHg 91%
01:00 +21°C° 0 mm 3 mps 750 mmHg 93%
02:00 +20°C° 0 mm 3 mps 750 mmHg 95%
03:00 +20°C° 0 mm 3 mps 750 mmHg 94%
04:00 +20°C° 0 mm 3 mps 750 mmHg 94%
05:00 +20°C° 0 mm 3 mps 750 mmHg 93%
06:00 +22°C° 0 mm 3 mps 750 mmHg 87%
07:00 +24°C° 0 mm 3 mps 750 mmHg 80%
08:00 +26°C° 0 mm 4 mps 750 mmHg 74%
09:00 +27°C° 0 mm 4 mps 750 mmHg 69%
10:00 +28°C° 0 mm 4 mps 750 mmHg 64%
11:00 +29°C° 0 mm 4 mps 750 mmHg 59%
12:00 +30°C° 0.2 mm 4 mps 750 mmHg 60%
13:00 +30°C° 0.2 mm 4 mps 750 mmHg 61%
14:00 +30°C° 0.2 mm 4 mps 750 mmHg 62%
15:00 +30°C° 0.6 mm 4 mps 750 mmHg 65%
16:00 +29°C° 0.6 mm 4 mps 750 mmHg 68%
17:00 +29°C° 0.6 mm 3 mps 750 mmHg 70%
18:00 +28°C° 0.4 mm 3 mps 750 mmHg 75%
19:00 +27°C° 0.4 mm 2 mps 750 mmHg 79%
20:00 +25°C° 0.4 mm 2 mps 750 mmHg 84%
21:00 +25°C° 0 mm 2 mps 750 mmHg 86%
22:00 +24°C° 0 mm 2 mps 750 mmHg 88%
23:00 +23°C° 0 mm 2 mps 751 mmHg 90%

23 June, Wednesday

Time Temperature Precipitation Wind Pressure Humidity
00:00 +23°C° 0 mm 2 mps 751 mmHg 91%
01:00 +21°C° 0 mm 2 mps 751 mmHg 92%
02:00 +21°C° 0 mm 2 mps 751 mmHg 93%
03:00 +22°C° 0.1 mm 1 mps 751 mmHg 93%
04:00 +22°C° 0.1 mm 1 mps 751 mmHg 94%
05:00 +23°C° 0.1 mm 1 mps 751 mmHg 94%
06:00 +24°C° 0 mm 2 mps 751 mmHg 88%
07:00 +25°C° 0 mm 3 mps 751 mmHg 82%
08:00 +27°C° 0 mm 3 mps 752 mmHg 75%
09:00 +28°C° 0 mm 4 mps 752 mmHg 69%
10:00 +29°C° 0 mm 4 mps 752 mmHg 62%
11:00 +30°C° 0 mm 4 mps 752 mmHg 55%
12:00 +30°C° 0 mm 4 mps 752 mmHg 53%
13:00 +32°C° 0 mm 4 mps 752 mmHg 50%
14:00 +31°C° 0 mm 3 mps 752 mmHg 47%
15:00 +33°C° 0 mm 3 mps 751 mmHg 49%
16:00 +32°C° 0 mm 2 mps 751 mmHg 50%
17:00 +32°C° 0 mm 2 mps 751 mmHg 51%
18:00 +30°C° 0.1 mm 2 mps 751 mmHg 59%
19:00 +29°C° 0.1 mm 2 mps 751 mmHg 67%
20:00 +27°C° 0.1 mm 2 mps 751 mmHg 75%
21:00 +26°C° 0.1 mm 2 mps 751 mmHg 80%
22:00 +25°C° 0.1 mm 2 mps 751 mmHg 84%
23:00 +24°C° 0.1 mm 2 mps 751 mmHg 89%

24 June, Thursday

Time Temperature Precipitation Wind Pressure Humidity
00:00 +24°C° 0 mm 2 mps 751 mmHg 91%
01:00 +23°C° 0 mm 2 mps 751 mmHg 92%
02:00 +23°C° 0 mm 2 mps 751 mmHg 94%
03:00 +23°C° 0 mm 2 mps 751 mmHg 94%
04:00 +23°C° 0 mm 2 mps 751 mmHg 93%
05:00 +23°C° 0 mm 2 mps 751 mmHg 92%
06:00 +25°C° 0 mm 2 mps 751 mmHg 85%
07:00 +27°C° 0 mm 3 mps 751 mmHg 79%
08:00 +28°C° 0 mm 3 mps 751 mmHg 72%
09:00 +29°C° 0.1 mm 4 mps 751 mmHg 67%
10:00 +30°C° 0.1 mm 4 mps 751 mmHg 62%
11:00 +32°C° 0.1 mm 4 mps 751 mmHg 57%
12:00 +33°C° 0.1 mm 4 mps 751 mmHg 56%
13:00 +33°C° 0.1 mm 4 mps 751 mmHg 54%
14:00 +34°C° 0.1 mm 4 mps 750 mmHg 52%
15:00 +33°C° 0.1 mm 3 mps 750 mmHg 57%
16:00 +31°C° 0.1 mm 3 mps 750 mmHg 61%
17:00 +31°C° 0.1 mm 2 mps 750 mmHg 65%
18:00 +29°C° 0.2 mm 2 mps 750 mmHg 71%
19:00 +28°C° 0.2 mm 1 mps 750 mmHg 77%
20:00 +27°C° 0.2 mm 1 mps 750 mmHg 82%
21:00 +26°C° 0.1 mm 1 mps 750 mmHg 85%
22:00 +25°C° 0.1 mm 1 mps 750 mmHg 87%
23:00 +24°C° 0.1 mm 1 mps 750 mmHg 89%
Show more